Other Public Products
Issued by NWS Grand Forks, ND

Home | Current Version | Previous Version | Graphics & Text | Print | Product List | Glossary On
Versions: 1 2 3 4 5 6 7 8 9 10 11 12 13 14 15 16 17 18 19 20 21 22 23 24 25 26 27 28 29 30 31 32 33 34 35 36 37 38 39 40 41 42 43 44 45 46 47 48 49 50
000
FPUS83 KFGF 230010
OPUFGF
PRAIRIE TO PINES WEATHER ROUNDUP
NATIONAL WEATHER SERVICE EASTERN NORTH DAKOTA/GRAND FORKS ND
700 PM CDT SAT JUL 22 2017

 **SATELLITE DATA USED TO AUGMENT SKY COVER AT AUTOMATED STATIONS**
 *****  WEATHER ACROSS EASTERN NORTH DAKOTA  *****

CITY           SKY/WX    TMP DP  RH WIND       PRES   REMARKS
GRAND FORKS    PTSUNNY   75  56  51 NW16      29.85R
6HR MIN TEMP:  75; 6HR MAX TEMP:  82;

GRAND FORKS AF NOT AVBL
GRAND CITY NWS NOT AVBL
BUXTON         NOT AVBL
DEVILS LAKE    CLOUDY    72  58  61 N13       29.92S
6HR MIN TEMP:  71; 6HR MAX TEMP:  78;

FARGO          FAIR      81  55  40 NW13      29.85S
6HR MIN TEMP:  81; 6HR MAX TEMP:  86;

WAHPETON ARPT  FAIR      79  52  38 NW7       29.85F
$$

 *****  WEATHER ACROSS CENTRAL AND WESTERN NORTH DAKOTA  *****

CITY           SKY/WX    TMP DP  RH WIND       PRES   REMARKS
JAMESTOWN      FAIR      80  56  43 N15       29.89S
6HR MIN TEMP:  80; 6HR MAX TEMP:  85;

BISMARCK       FAIR      84  50  30 NW14      29.95S
6HR MIN TEMP:  83; 6HR MAX TEMP:  90;

MINOT          FAIR      76  52  43 NW18      29.96R
6HR MIN TEMP:  76; 6HR MAX TEMP:  83;

MINOT AFB      NOT AVBL
GARRISON         N/A     80  49  33 NW22G29   29.96S
6HR MIN TEMP:  79; 6HR MAX TEMP:  83;

WILLISTON      FAIR      84  46  26 NW14      30.00S
6HR MIN TEMP:  79; 6HR MAX TEMP:  86;

DICKINSON      FAIR      83  45  26 NW14G25   30.00S
6HR MIN TEMP:  83; 6HR MAX TEMP:  86;

HETTINGER      FAIR      85  41  21 NW23G31   30.03S
6HR MIN TEMP:  85; 6HR MAX TEMP:  89;

$$

 *****  OTHER OBSERVATIONS NORTHEAST NORTH DAKOTA  *****

CITY           SKY/WX    TMP DP  RH WIND       PRES   REMARKS
WALHALLA       NOT AVBL
LANGDON        FAIR      70  59  68 NW18      29.91S
CAVALIER       FAIR      70  63  78 NW10G16   29.85F
GRAFTON        LGT RAIN  68  61  77 N14G21    29.88S
CANDO          NOT AVBL
FORT TOTTEN      N/A     72  59  64 NW3       29.95S
ROLLA            N/A     70  55  60 N16       29.95S
RUGBY          NOT AVBL
 ***** THE ABOVE OBSERVATIONS ARE NON NWS ARE NOT QUALITY
        CONTROLLED AND MAY MIS-REPORT RAIN FOR SNOW...
$$

 *****  OTHER OBSERVATIONS SOUTHEAST NORTH DAKOTA *****

CITY           SKY/WX    TMP DP  RH WIND       PRES   REMARKS
COOPERSTOWN    FAIR      77  57  50 N16       29.90R
VALLEY CITY    FAIR      79  55  44 NW14      29.90S
OAKES          NOT AVBL
GWINNER        CLEAR     81  61  50 NE9       29.86F
SHEYENNE NWR     N/A     83  56  39 N6        29.95S
BUFFALO        NOT AVBL
WYNDMERE       NOT AVBL
 ***** THE ABOVE OBSERVATIONS ARE NON NWS ARE NOT QUALITY
       CONTROLLED AND MAY MIS-REPORT RAIN FOR SNOW...
$$

  *****  WEATHER ACROSS NORTHERN MINNESOTA  *****

CITY           SKY/WX    TMP DP  RH WIND       PRES   REMARKS
FLAG ISLAND    LGT RAIN  64  61  88 CALM      29.79S
WARROAD        FAIR      68  63  83 W9G16     29.82R
ROSEAU         FAIR      68  59  73 NW9       29.82S
HALLOCK        FAIR      68  63  83 NW7       29.84F
THF RVR FALLS  FAIR      69  58  67 NW16      29.86R
6HR MIN TEMP:  69; 6HR MAX TEMP:  78; 6HR PCP: TRACE;

HALSTAD        NOT AVBL
FOSSTON        CLOUDY    70  55  60 W8        29.86S
BAUDETTE       CLOUDY    70  57  63 W14G21    29.80R
6HR MIN TEMP:  70; 6HR MAX TEMP:  81; 6HR PCP: TRACE;

WASKISH        PTSUNNY   73  59  60 W14G20    29.81S
CROOKSTON      PTSUNNY   72  57  60 NW9       29.85S
$$
  *****  WEATHER ACROSS CENTRAL AND WEST MINNESOTA  *****

CITY           SKY/WX    TMP DP  RH WIND       PRES   REMARKS
BEMIDJI        FAIR      75  54  48 W14       29.84F
PARK RAPIDS    FAIR      79  52  38 NW15      29.86S
6HR MIN TEMP:  78; 6HR MAX TEMP:  85;

WADENA         FAIR      77  57  50 NW6       29.86F
DETROIT LAKES  FAIR      77  55  47 NW9       29.88F
MOORHEAD       FAIR      81  57  44 N9        29.86S
FERGUS FALLS   FAIR      79  61  53 N5        29.85F
ELBOW LAKE     FAIR      79  60  51 NW7       29.87F HAZE
6HR MIN TEMP:  79; 6HR MAX TEMP:  82;

MORRIS MN      FAIR      84  61  45 N6        29.86F
STAPLES        FAIR      79  52  38 NW9       29.86S
WHEATON        FAIR      82  57  42 N5        29.87F
$$
  *****  WEATHER ELSEWHERE ACROSS MINNESOTA  *****

CITY           SKY/WX    TMP DP  RH WIND       PRES   REMARKS
DULUTH         FAIR      63  58  83 SE7       29.81S
6HR MIN TEMP:  63; 6HR MAX TEMP:  72;

INTRNTL FALLS  FAIR      74  56  53 W10       29.77S
6HR MIN TEMP:  74; 6HR MAX TEMP:  82;

ELY            FAIR      68  63  83 CALM      29.79F
CLOQUET        PTSUNNY   70  61  73 E5        29.81S
BRAINERD       FAIR      80  48  32 W12       29.84S
6HR MIN TEMP:  80; 6HR MAX TEMP:  84;

HIBBING        FAIR      77  55  46 W8        29.79S
6HR MIN TEMP:  72; 6HR MAX TEMP:  82; 6HR PCP:  0.01;

ALEXANDRIA     FAIR      80  60  50 N9        29.89F
6HR MIN TEMP:  80; 6HR MAX TEMP:  83;

SAINT CLOUD    FAIR      83  62  49 NW13      29.83S
6HR MIN TEMP:  83; 6HR MAX TEMP:  87;

MINNEAPOLIS    FAIR      87  62  43 NW10      29.81S
6HR MIN TEMP:  86; 6HR MAX TEMP:  91;

$$

  *****  WEATHER ACROSS SOUTH DAKOTA  *****

CITY           SKY/WX    TMP DP  RH WIND       PRES   REMARKS
SIOUX FALLS    FAIR      86  69  56 NW5       29.90F HX  90
6HR MIN TEMP:  83; 6HR MAX TEMP:  89;

BROOKINGS      FAIR      85  63  47 NW8       29.92F
WATERTOWN      FAIR      83  58  42 W10       29.90F
6HR MIN TEMP:  81; 6HR MAX TEMP:  86;

HURON          FAIR      88  59  37 N5        29.89F
6HR MIN TEMP:  83; 6HR MAX TEMP:  90;

SISSETON         N/A     86  57  37 NW8       29.85F
ABERDEEN       FAIR      88  50  27 NW17      29.87F
6HR MIN TEMP:  85; 6HR MAX TEMP:  90;

MITCHELL       FAIR      89  64  43 N5        29.90F HX  90
PIERRE         FAIR      94  40  15 N8        29.91F HX  90
6HR MIN TEMP:  90; 6HR MAX TEMP:  96;

MOBRIDGE       FAIR      88  51  28 NW16      29.91S
RAPID CITY     FAIR      91  40  16 N12       30.04F
6HR MIN TEMP:  86; 6HR MAX TEMP:  94;

$$

  *****  SOME WEATHER IN NEARBY STATES *****

CITY           SKY/WX    TMP DP  RH WIND       PRES   REMARKS
GLASGOW MT     FAIR      86  43  22 MISG      30.01F
6HR MIN TEMP:  77; 6HR MAX TEMP:  87;

GREAT FALLS MT FAIR      89  35  14 CALM      30.07F
6HR MIN TEMP:  79; 6HR MAX TEMP:  89;

CHEYENNE WY    FAIR      82  46  28 SE5       30.19F
6HR MIN TEMP:  77; 6HR MAX TEMP:  87;

SCOTTSBLUFF NE FAIR      86  55  34 S15G25    30.05S
6HR MIN TEMP:  86; 6HR MAX TEMP:  94;

OMAHA NE       LGT RAIN  84  75  74 N14       29.87F HX  92
6HR MIN TEMP:  84; 6HR MAX TEMP:  93; 6HR PCP: TRACE;

DES MOINES IA  PTSUNNY   86  73  65 N10       29.85R HX  93
6HR MIN TEMP:  86; 6HR MAX TEMP:  92;

DAVENPORT IA   PTSUNNY   81  74  79 CALM      29.83S
6HR MIN TEMP:  81; 6HR MAX TEMP:  83;

CHICAGO IL     PTSUNNY   83  70  64 E6        29.79S
6HR MIN TEMP:  82; 6HR MAX TEMP:  88;

EAU CLAIRE WI  PTSUNNY   75  69  81 SW9       29.80S THUNDER
6HR MIN TEMP:  74; 6HR MAX TEMP:  89; 6HR PCP:  0.39;

LA CROSSE WI   FAIR      85  73  67 S8        29.79F HX  91
6HR MIN TEMP:  78; 6HR MAX TEMP:  87;

$$

  *****  SOME NATIONAL WEATHER *****

CITY           SKY/WX    TMP DP  RH WIND       PRES   REMARKS
LA GUARDIA NY  CLOUDY    83  66  56 SE9       29.76S
6HR MIN TEMP:  82; 6HR MAX TEMP:  91; 6HR PCP: TRACE;



USA.gov is the U.S. government's official web portal to all federal, state and local government web resources and services.